EA3ANS-1 Weather Reports


Display with metric or nautical units.
time (UTC)temp
F
wind
direction
speed
MPH
gust
MPH
rain 1hr
in
rain 24hr
in
rain mn
in
humidity
%
barometer
mb
20260906003136 77 309 4.0 3.0 0.00 0.00 0.00 1019.4
20260906002139 77 280 5.0 4.0 0.00 0.00 0.00 1019.5
20260906001135 77 322 5.0 4.0 0.00 0.00 0.00 1019.5
20260906000136 77 323 7.0 6.0 0.00 0.00 0.00 1019.5
20260905235135 78 329 3.0 5.0 0.00 0.00 0.00 1019.6
20260905234128 78 305 0.0 2.0 0.00 0.00 0.00 1019.6
20260905233126 78 277 2.0 2.0 0.00 0.00 0.00 1019.6
20260905232128 78 10 4.0 4.0 0.00 0.00 0.00 1019.7
20260905231130 78 309 2.0 2.0 0.00 0.00 0.00 1019.8
20260905230130 78 173 0.0 0.0 0.00 0.00 0.00 1019.9
20260905225133 78 173 0.0 0.0 0.00 0.00 0.00 1019.9
20260905224135 78 184 0.0 0.0 0.00 0.00 0.00 1019.7
20260905223130 78 177 0.0 0.0 0.00 0.00 0.00 1019.7
20260905222131 78 177 0.0 0.0 0.00 0.00 0.00 1019.7
20260905221131 78 177 1.0 1.0 0.00 0.00 0.00 1019.8
20260905220126 79 179 0.0 3.0 0.00 0.00 0.00 1019.7
20260905215126 80 204 0.0 0.0 0.00 0.00 0.00 1019.5
20260905214128 80 252 0.0 2.0 0.00 0.00 0.00 1019.7
20260905213130 80 316 1.0 2.0 0.00 0.00 0.00 1019.7
20260905212123 80 191 0.0 0.0 0.00 0.00 0.00 1019.7
20260905211125 81 191 0.0 0.0 0.00 0.00 0.00 1019.8
20260905210128 81 191 0.0 0.0 0.00 0.00 0.00 1019.8
20260905205130 81 191 0.0 0.0 0.00 0.00 0.00 1019.7
20260905204133 82 191 0.0 0.0 0.00 0.00 0.00 1019.7
20260905203135 82 191 0.0 0.0 0.00 0.00 0.00 1019.7
20260905202131 82 198 2.0 3.0 0.00 0.00 0.00 1019.7
20260905201124 82 218 2.0 1.0 0.00 0.00 0.00 1019.7
20260905200127 83 204 4.0 3.0 0.00 0.00 0.00 1019.6
20260905195129 83 187 1.0 2.0 0.00 0.00 0.00 1019.5
20260905194132 83 214 2.0 1.0 0.00 0.00 0.00 1019.5
20260905193134 84 176 2.0 3.0 0.00 0.00 0.00 1019.5
20260905192137 85 160 1.0 2.0 0.00 0.00 0.00 1019.4
20260905191139 85 160 2.0 3.0 0.00 0.00 0.00 1019.4
20260905190135 86 150 2.0 2.0 0.00 0.00 0.00 1019.4
20260905185129 86 169 2.0 1.0 0.00 0.00 0.00 1019.4
20260905184128 86 146 1.0 3.0 0.00 0.00 0.00 1019.2
20260905183130 87 120 3.0 3.0 0.00 0.00 0.00 1019.1
20260905182133 88 101 4.0 1.0 0.00 0.00 0.00 1018.9
20260905181134 87 149 4.0 3.0 0.00 0.00 0.00 1018.8
20260905180137 88 173 5.0 6.0 0.00 0.00 0.00 1018.7
20260905175127 89 203 3.0 1.0 0.00 0.00 0.00 1018.6
20260905174130 89 200 4.0 0.0 0.00 0.00 0.00 1018.7
20260905173132 90 104 5.0 6.0 0.00 0.00 0.00 1018.7
20260905172135 90 145 6.0 6.0 0.00 0.00 0.00 1018.6
20260905171136 91 129 4.0 4.0 0.00 0.00 0.00 1018.5
20260905170133 91 131 6.0 3.0 0.00 0.00 0.00 1018.5
20260905165134 92 149 7.0 6.0 0.00 0.00 0.00 1018.6
20260905164129 92 163 8.0 3.0 0.00 0.00 0.00 1018.5
20260905163129 93 124 7.0 7.0 0.00 0.00 0.00 1018.6
20260905162132 93 158 7.0 8.0 0.00 0.00 0.00 1018.7
20260905161132 93 145 7.0 6.0 0.00 0.00 0.00 1018.8
20260905160134 93 120 7.0 4.0 0.00 0.00 0.00 1018.8
20260905155136 94 127 7.0 5.0 0.00 0.00 0.00 1018.8
20260905154138 93 153 9.0 7.0 0.00 0.00 0.00 1018.8
20260905153132 93 163 10.0 9.0 0.00 0.00 0.00 1018.8
20260905152134 95 120 8.0 5.0 0.00 0.00 0.00 1018.8
20260905151132 95 118 8.0 8.0 0.00 0.00 0.00 1018.8
20260905150131 95 159 8.0 10.0 0.00 0.00 0.00 1018.9
20260905145134 96 115 5.0 5.0 0.00 0.00 0.00 1018.9
20260905144131 95 153 8.0 6.0 0.00 0.00 0.00 1019.0
20260905143133 96 188 8.0 13.0 0.00 0.00 0.00 1019.0
20260905142127 96 124 11.0 14.0 0.00 0.00 0.00 1019.1
20260905141130 96 152 10.0 13.0 0.00 0.00 0.00 1019.2
20260905140133 96 155 8.0 7.0 0.00 0.00 0.00 1019.1
20260905135135 96 179 10.0 12.0 0.00 0.00 0.00 1019.2
20260905134136 96 155 10.0 11.0 0.00 0.00 0.00 1019.1
20260905133138 96 131 12.0 13.0 0.00 0.00 0.00 1019.1
20260905132141 97 165 10.0 13.0 0.00 0.00 0.00 1018.9
20260905131131 97 110 6.0 6.0 0.00 0.00 0.00 1019.0
20260905130134 97 135 10.0 10.0 0.00 0.00 0.00 1019.0
20260905125136 97 129 9.0 8.0 0.00 0.00 0.00 1019.0
20260905124139 98 165 10.0 10.0 0.00 0.00 0.00 1019.1
20260905123142 97 139 6.0 6.0 0.00 0.00 0.00 1019.3
20260905122144 97 143 7.0 8.0 0.00 0.00 0.00 1019.4
20260905121147 98 149 8.0 9.0 0.00 0.00 0.00 1019.5
20260905120142 97 138 7.0 10.0 0.00 0.00 0.00 1019.6
20260905115145 97 150 7.0 8.0 0.00 0.00 0.00 1019.5
20260905114147 97 162 8.0 11.0 0.00 0.00 0.00 1019.7
20260905113149 97 98 6.0 5.0 0.00 0.00 0.00 1019.7
20260905112152 97 163 6.0 4.0 0.00 0.00 0.00 1019.8
20260905111154 97 135 2.0 8.0 0.00 0.00 0.00 1019.7
20260905110147 96 124 4.0 5.0 0.00 0.00 0.00 1019.7
20260905105141 96 142 9.0 5.0 0.00 0.00 0.00 1019.7
20260905104142 95 135 7.0 6.0 0.00 0.00 0.00 1019.8
20260905103145 96 143 9.0 8.0 0.00 0.00 0.00 1019.7
20260905102147 95 136 8.0 7.0 0.00 0.00 0.00 1019.8
20260905101145 95 108 8.0 6.0 0.00 0.00 0.00 1019.8
20260905100148 94 150 6.0 12.0 0.00 0.00 0.00 1019.7
20260905095147 94 100 8.0 6.0 0.00 0.00 0.00 1020.0
20260905094140 92 245 2.0 5.0 0.00 0.00 0.00 1020.0
20260905093140 90 201 2.0 2.0 0.00 0.00 0.00 1020.0
20260905092143 88 229 0.0 0.0 0.00 0.00 0.00 1020.0
20260905091146 89 229 1.0 0.0 0.00 0.00 0.00 1020.0
20260905090148 88 21 0.0 0.0 0.00 0.00 0.00 1020.0
20260905085151 87 311 0.0 0.0 0.00 0.00 0.00 1020.0
20260905084154 85 56 0.0 0.0 0.00 0.00 0.00 1020.0
20260905083148 83 322 4.0 3.0 0.00 0.00 0.00 1019.9
20260905082151 82 343 6.0 5.0 0.00 0.00 0.00 1019.7
20260905081148 83 13 4.0 2.0 0.00 0.00 0.00 1019.9
20260905080151 82 359 3.0 4.0 0.00 0.00 0.00 1019.8
20260905075154 80 300 3.0 4.0 0.00 0.00 0.00 1019.8
20260905074153 80 330 5.0 7.0 0.00 0.00 0.00 1019.8
20260905073154 78 326 3.0 3.0 0.00 0.00 0.00 1019.8
20260905072137 77 333 7.0 6.0 0.00 0.00 0.00 1019.8
20260905071138 76 301 5.0 4.0 0.00 0.00 0.00 1019.8
20260905070136 76 352 7.0 6.0 0.00 0.00 0.00 1019.7
20260905065130 75 326 6.0 3.0 0.00 0.00 0.00 1019.6
20260905064130 75 17 4.0 3.0 0.00 0.00 0.00 1019.6
20260905063133 74 321 7.0 8.0 0.00 0.00 0.00 1019.5
20260905062135 74 319 7.0 8.0 0.00 0.00 0.00 1019.5
20260905061208 74 330 5.0 6.0 0.00 0.00 0.00 1019.4
20260905061131 74 330 5.0 6.0 0.00 0.00 0.00 1019.4
20260905060124 74 338 5.0 5.0 0.00 0.00 0.00 1019.3
20260905055124 74 338 3.0 5.0 0.00 0.00 0.00 1019.1
20260905054124 74 308 2.0 2.0 0.00 0.00 0.00 1019.0
20260905053126 74 302 5.0 4.0 0.00 0.00 0.00 1019.0
20260905052129 75 304 4.0 5.0 0.00 0.00 0.00 1019.0
20260905051132 75 291 6.0 6.0 0.00 0.00 0.00 1019.0
20260905050124 75 335 7.0 8.0 0.00 0.00 0.00 1018.9
20260905045125 75 322 5.0 2.0 0.00 0.00 0.00 1018.9
20260905044127 76 325 5.0 5.0 0.00 0.00 0.00 1018.9
20260905043129 75 326 5.0 4.0 0.00 0.00 0.00 1018.7
20260905042131 74 14 0.0 0.0 0.00 0.00 0.00 1018.6
20260905041133 75 91 2.0 2.0 0.00 0.00 0.00 1018.6
20260905040136 75 228 1.0 0.0 0.00 0.00 0.00 1018.5
20260905035131 75 323 1.0 2.0 0.00 0.00 0.00 1018.4
20260905034131 75 53 0.0 0.0 0.00 0.00 0.00 1018.5
20260905033133 75 353 0.0 0.0 0.00 0.00 0.00 1018.5
20260905032136 75 274 0.0 0.0 0.00 0.00 0.00 1018.5
20260905031138 75 325 3.0 2.0 0.00 0.00 0.00 1018.4
20260905030140 75 63 0.0 0.0 0.00 0.00 0.00 1018.4
20260905025143 75 83 2.0 1.0 0.00 0.00 0.00 1018.4
20260905024135 75 128 2.0 3.0 0.00 0.00 0.00 1018.3
20260905023138 76 24 0.0 0.0 0.00 0.00 0.00 1018.3
20260905022135 77 295 3.0 2.0 0.00 0.00 0.00 1018.2
20260905021136 76 283 3.0 4.0 0.00 0.00 0.00 1018.3
20260905020139 75 65 0.0 0.0 0.00 0.00 0.00 1018.3
20260905015141 75 162 3.0 3.0 0.00 0.00 0.00 1018.2
20260905014144 76 45 0.0 0.0 0.00 0.00 0.00 1018.3
20260905013138 77 51 1.0 1.0 0.00 0.00 0.00 1018.3
20260905012131 77 46 0.0 0.0 0.00 0.00 0.00 1018.4
20260905011129 78 270 3.0 3.0 0.00 0.00 0.00 1018.3
20260905010130 78 233 4.0 0.0 0.00 0.00 0.00 1018.4
20260905005132 77 169 2.0 1.0 0.00 0.00 0.00 1018.4
20260905004129 77 101 2.0 2.0 0.00 0.00 0.00 1018.4